Location: B?ezina
(49.8085°N, 13.6013°E)
Time: 06:19:37
(UTC+00:00)

Cosmos 1707 - Pass Details

Date: 19 May 2025
Orbit: 423 x 430 km, 82.5° (Epoch: 14 June)

Event Time Altitude Azimuth Distance (km) Brightness Sun altitude
Exits shadow 22:52:18 53° 265° (W) 544 2.7 -20.2°
Maximum altitude 22:52:31 54° 283° (WNW) 536 2.8 -20.2°
Drops below altitude 10° 22:55:50 10° 2° (N) 1,553 6.3 -20.2°
Sets 22:57:56 0° 7° (N) 2,428 7.7 -20.2°
